| time (UTC) | temp C | wind direction | speed KPH | gust KPH | rain 1hr cm | rain 24hr cm | rain mn cm | humidity % | barometer mb |
| 20260506125942 | 18 | 308 | 6.4 | 8.0 | 0.00 | 0.00 | 0.00 | 87 | 1012.1 |
| 20260506125440 | 18 | 30 | 6.4 | 9.7 | 0.00 | 0.00 | 0.00 | 89 | 1012.3 |
| 20260506124938 | 18 | 30 | 3.2 | 14.5 | 0.00 | 0.00 | 0.00 | 89 | 1012.1 |
| 20260506124435 | 19 | 344 | 4.8 | 9.7 | 0.00 | 0.00 | 0.00 | 90 | 1011.9 |
| 20260506123933 | 19 | 125 | 8.0 | 9.7 | 0.00 | 0.00 | 0.00 | 89 | 1012.0 |
| 20260506123431 | 19 | 94 | 8.0 | 8.0 | 0.00 | 0.00 | 0.00 | 89 | 1011.9 |
| 20260506122928 | 20 | 40 | 4.8 | 8.0 | 0.00 | 0.00 | 0.00 | 88 | 1011.8 |
| 20260506122425 | 20 | 96 | 11.3 | 14.5 | 0.00 | 0.00 | 0.00 | 87 | 1011.9 |
| 20260506121923 | 20 | 15 | 3.2 | 6.4 | 0.00 | 0.00 | 0.00 | 87 | 1011.6 |
| 20260506121420 | 21 | 297 | 9.7 | 9.7 | 0.00 | 0.00 | 0.00 | 86 | 1011.5 |
| 20260506120917 | 21 | 274 | 9.7 | 14.5 | 0.00 | 0.00 | 0.00 | 85 | 1011.6 |
| 20260506120414 | 22 | 241 | 0.0 | 4.8 | 0.00 | 0.00 | 0.00 | 84 | 1011.5 |
| 20260506115911 | 23 | 248 | 8.0 | 16.1 | 0.00 | 0.00 | 0.00 | 84 | 1011.2 |
| 20260506115409 | 23 | 15 | 1.6 | 6.4 | 0.00 | 0.00 | 0.00 | 88 | 1011.1 |
| 20260506114907 | 23 | 150 | 0.0 | 4.8 | 0.00 | 0.00 | 0.00 | 88 | 1010.9 |
| 20260506114404 | 23 | 286 | 3.2 | 8.0 | 0.00 | 0.00 | 0.00 | 88 | 1010.9 |
| 20260506113904 | 23 | 234 | 4.8 | 6.4 | 0.00 | 0.00 | 0.00 | 88 | 1010.9 |
| 20260506113401 | 23 | 233 | 3.2 | 6.4 | 0.00 | 0.00 | 0.00 | 88 | 1010.8 |
| 20260506112857 | 23 | 268 | 0.0 | 4.8 | 0.00 | 0.00 | 0.00 | 88 | 1010.8 |
| 20260506112354 | 23 | 240 | 4.8 | 8.0 | 0.00 | 0.00 | 0.00 | 88 | 1010.7 |
| 20260506111851 | 23 | 210 | 3.2 | 9.7 | 0.00 | 0.00 | 0.00 | 88 | 1010.8 |
| 20260506111350 | 23 | 143 | 3.2 | 4.8 | 0.00 | 0.00 | 0.00 | 88 | 1010.6 |
| 20260506110847 | 23 | 195 | 4.8 | 11.3 | 0.00 | 0.00 | 0.00 | 88 | 1010.5 |
| 20260506110344 | 23 | 212 | 8.0 | 9.7 | 0.00 | 0.00 | 0.00 | 88 | 1010.5 |
| 20260506105841 | 23 | 248 | 11.3 | 12.9 | 0.00 | 0.00 | 0.00 | 88 | 1010.3 |
| 20260506105337 | 23 | 225 | 8.0 | 14.5 | 0.00 | 0.00 | 0.00 | 88 | 1010.5 |
| 20260506104835 | 23 | 226 | 3.2 | 9.7 | 0.00 | 0.00 | 0.00 | 88 | 1010.4 |
| 20260506104332 | 23 | 194 | 3.2 | 9.7 | 0.00 | 0.00 | 0.00 | 88 | 1010.4 |
| 20260506103830 | 23 | 220 | 4.8 | 9.7 | 0.00 | 0.00 | 0.00 | 88 | 1010.4 |
| 20260506103327 | 23 | 165 | 4.8 | 9.7 | 0.00 | 0.00 | 0.00 | 87 | 1010.2 |
| 20260506102824 | 23 | 132 | 4.8 | 16.1 | 0.00 | 0.00 | 0.00 | 87 | 1010.2 |
| 20260506102322 | 23 | 222 | 6.4 | 8.0 | 0.00 | 0.00 | 0.00 | 87 | 1010.0 |
| 20260506101819 | 23 | 164 | 3.2 | 6.4 | 0.00 | 0.00 | 0.00 | 87 | 1010.0 |
| 20260506101315 | 23 | 194 | 3.2 | 12.9 | 0.00 | 0.00 | 0.00 | 87 | 1010.0 |
| 20260506100813 | 23 | 255 | 3.2 | 12.9 | 0.00 | 0.00 | 0.00 | 87 | 1009.8 |
| 20260506100311 | 24 | 205 | 4.8 | 19.3 | 0.00 | 0.00 | 0.00 | 87 | 1009.9 |
| 20260506095809 | 24 | 208 | 9.7 | 17.7 | 0.00 | 0.00 | 0.00 | 87 | 1009.9 |
| 20260506095306 | 24 | 214 | 6.4 | 12.9 | 0.00 | 0.00 | 0.00 | 87 | 1009.8 |
| 20260506094803 | 24 | 217 | 4.8 | 14.5 | 0.00 | 0.00 | 0.00 | 87 | 1009.9 |
| 20260506094302 | 23 | 213 | 4.8 | 11.3 | 0.00 | 0.00 | 0.00 | 87 | 1009.9 |
| 20260506093759 | 23 | 196 | 3.2 | 14.5 | 0.00 | 0.00 | 0.00 | 87 | 1009.7 |
| 20260506093256 | 23 | 242 | 12.9 | 14.5 | 0.00 | 0.00 | 0.00 | 87 | 1009.6 |
| 20260506092754 | 23 | 268 | 3.2 | 9.7 | 0.00 | 0.00 | 0.00 | 88 | 1009.6 |
| 20260506092252 | 23 | 275 | 6.4 | 11.3 | 0.00 | 0.00 | 0.00 | 88 | 1009.5 |
| 20260506091749 | 23 | 170 | 3.2 | 11.3 | 0.00 | 0.00 | 0.00 | 88 | 1009.4 |
| 20260506091246 | 23 | 213 | 3.2 | 12.9 | 0.00 | 0.00 | 0.00 | 88 | 1009.5 |
| 20260506090744 | 23 | 170 | 4.8 | 9.7 | 0.00 | 0.00 | 0.00 | 88 | 1009.5 |
| 20260506090241 | 23 | 190 | 6.4 | 11.3 | 0.00 | 0.00 | 0.00 | 88 | 1009.3 |
| 20260506085737 | 23 | 239 | 9.7 | 19.3 | 0.00 | 0.00 | 0.00 | 88 | 1009.4 |
| 20260506085234 | 23 | 221 | 9.7 | 12.9 | 0.00 | 0.00 | 0.00 | 88 | 1009.5 |
| 20260506084730 | 23 | 234 | 4.8 | 22.5 | 0.00 | 0.00 | 0.00 | 88 | 1009.6 |
| 20260506084226 | 23 | 246 | 8.0 | 9.7 | 0.00 | 0.00 | 0.00 | 88 | 1009.8 |
| 20260506083724 | 23 | 189 | 4.8 | 12.9 | 0.00 | 0.00 | 0.00 | 88 | 1009.6 |
| 20260506083221 | 23 | 310 | 0.0 | 11.3 | 0.00 | 0.00 | 0.00 | 89 | 1009.7 |
| 20260506082719 | 23 | 233 | 8.0 | 11.3 | 0.00 | 0.00 | 0.00 | 89 | 1009.5 |
| 20260506082214 | 23 | 193 | 6.4 | 16.1 | 0.00 | 0.00 | 0.00 | 89 | 1009.3 |
| 20260506081712 | 23 | 203 | 1.6 | 16.1 | 0.00 | 0.00 | 0.00 | 89 | 1009.3 |
| 20260506081209 | 23 | 227 | 3.2 | 14.5 | 0.00 | 0.00 | 0.00 | 89 | 1009.4 |
| 20260506080707 | 23 | 131 | 3.2 | 12.9 | 0.00 | 0.00 | 0.00 | 89 | 1009.3 |
| 20260506080203 | 23 | 242 | 6.4 | 9.7 | 0.00 | 0.00 | 0.00 | 89 | 1009.7 |
| 20260506073147 | 23 | 160 | 4.8 | 11.3 | 0.00 | 0.00 | 0.00 | 89 | 1009.5 |
| 20260506072644 | 23 | 192 | 3.2 | 12.9 | 0.00 | 0.00 | 0.00 | 89 | 1009.6 |
| 20260506072142 | 23 | 163 | 9.7 | 12.9 | 0.00 | 0.00 | 0.00 | 89 | 1009.2 |
| 20260506071639 | 23 | 164 | 4.8 | 12.9 | 0.00 | 0.00 | 0.00 | 89 | 1009.2 |
| 20260506071137 | 23 | 158 | 8.0 | 11.3 | 0.00 | 0.00 | 0.00 | 89 | 1009.6 |
| 20260506070633 | 23 | 172 | 8.0 | 19.3 | 0.00 | 0.00 | 0.00 | 89 | 1009.5 |
| 20260506070130 | 23 | 178 | 4.8 | 12.9 | 0.00 | 0.00 | 0.00 | 88 | 1009.3 |
| 20260506062108 | 24 | 235 | 11.3 | 16.1 | 0.00 | 0.00 | 0.00 | 88 | 1010.3 |
| 20260506061603 | 24 | 196 | 6.4 | 9.7 | 0.00 | 0.00 | 0.00 | 88 | 1010.4 |
| 20260506061102 | 24 | 180 | 3.2 | 11.3 | 0.00 | 0.00 | 0.00 | 88 | 1010.2 |
| 20260506060600 | 24 | 159 | 3.2 | 14.5 | 0.00 | 0.00 | 0.00 | 88 | 1010.1 |
| 20260506051028 | 24 | 155 | 3.2 | 9.7 | 0.00 | 0.00 | 0.00 | 88 | 1009.6 |
| 20260506050526 | 24 | 133 | 4.8 | 17.7 | 0.00 | 0.00 | 0.00 | 88 | 1009.5 |
| 20260506045017 | 24 | 224 | 14.5 | 14.5 | 0.00 | 0.00 | 0.00 | 88 | 1009.5 |
| 20260506044515 | 24 | 152 | 3.2 | 12.9 | 0.00 | 0.00 | 0.00 | 88 | 1009.4 |
| 20260506044011 | 24 | 190 | 0.0 | 9.7 | 0.00 | 0.00 | 0.00 | 88 | 1009.2 |
| 20260506043508 | 24 | 221 | 6.4 | 16.1 | 0.00 | 0.00 | 0.00 | 88 | 1009.2 |
| 20260506043007 | 24 | 197 | 4.8 | 9.7 | 0.00 | 0.00 | 0.00 | 87 | 1008.9 |
| 20260506042506 | 24 | 205 | 9.7 | 19.3 | 0.00 | 0.00 | 0.00 | 87 | 1009.1 |
| 20260506042003 | 24 | 165 | 4.8 | 9.7 | 0.00 | 0.00 | 0.00 | 87 | 1008.8 |
| 20260506041501 | 24 | 180 | 6.4 | 17.7 | 0.00 | 0.00 | 0.00 | 87 | 1008.7 |
| 20260506040958 | 24 | 173 | 8.0 | 17.7 | 0.00 | 0.00 | 0.00 | 87 | 1008.7 |
| 20260506040456 | 24 | 139 | 11.3 | 17.7 | 0.00 | 0.00 | 0.00 | 86 | 1008.8 |
| 20260506035951 | 25 | 136 | 9.7 | 16.1 | 0.00 | 0.00 | 0.00 | 86 | 1008.7 |
| 20260506035449 | 25 | 141 | 9.7 | 19.3 | 0.00 | 0.00 | 0.00 | 85 | 1008.5 |
| 20260506034945 | 25 | 229 | 11.3 | 17.7 | 0.00 | 0.00 | 0.00 | 85 | 1008.6 |
| 20260506034443 | 25 | 218 | 4.8 | 12.9 | 0.00 | 0.00 | 0.00 | 85 | 1008.6 |
| 20260506033939 | 25 | 162 | 11.3 | 14.5 | 0.00 | 0.00 | 0.00 | 84 | 1008.7 |
| 20260506033437 | 25 | 200 | 6.4 | 16.1 | 0.00 | 0.00 | 0.00 | 84 | 1008.7 |
| 20260506032934 | 25 | 204 | 9.7 | 17.7 | 0.00 | 0.00 | 0.00 | 83 | 1008.5 |
| 20260506032431 | 25 | 179 | 6.4 | 16.1 | 0.00 | 0.00 | 0.00 | 83 | 1008.7 |
| 20260506031927 | 25 | 161 | 6.4 | 14.5 | 0.00 | 0.00 | 0.00 | 82 | 1008.7 |
| 20260506031425 | 25 | 172 | 8.0 | 17.7 | 0.00 | 0.00 | 0.00 | 82 | 1008.8 |
| 20260506030922 | 25 | 150 | 3.2 | 11.3 | 0.00 | 0.00 | 0.00 | 82 | 1008.5 |
| 20260506030420 | 25 | 145 | 8.0 | 14.5 | 0.00 | 0.00 | 0.00 | 81 | 1008.1 |
| 20260506025917 | 25 | 199 | 3.2 | 16.1 | 0.00 | 0.00 | 0.00 | 81 | 1008.1 |
| 20260506025414 | 25 | 158 | 8.0 | 14.5 | 0.00 | 0.00 | 0.00 | 81 | 1008.3 |
| 20260506024910 | 25 | 167 | 6.4 | 11.3 | 0.00 | 0.00 | 0.00 | 80 | 1008.4 |
| 20260506024408 | 25 | 166 | 8.0 | 9.7 | 0.00 | 0.00 | 0.00 | 80 | 1008.6 |
| 20260506023904 | 25 | 150 | 6.4 | 8.0 | 0.00 | 0.00 | 0.00 | 80 | 1008.6 |
| 20260506023401 | 25 | 161 | 3.2 | 9.7 | 0.00 | 0.00 | 0.00 | 80 | 1008.6 |
| 20260506022857 | 25 | 174 | 3.2 | 9.7 | 0.00 | 0.00 | 0.00 | 80 | 1008.6 |
| 20260506022355 | 25 | 187 | 3.2 | 8.0 | 0.00 | 0.00 | 0.00 | 79 | 1008.4 |
| 20260506021853 | 25 | 194 | 6.4 | 9.7 | 0.00 | 0.00 | 0.00 | 79 | 1008.4 |
| 20260506021349 | 25 | 158 | 6.4 | 8.0 | 0.00 | 0.00 | 0.00 | 79 | 1008.3 |
| 20260506020846 | 25 | 172 | 4.8 | 9.7 | 0.00 | 0.00 | 0.00 | 79 | 1008.3 |
| 20260506020344 | 25 | 155 | 6.4 | 9.7 | 0.00 | 0.00 | 0.00 | 79 | 1008.2 |
| 20260506015841 | 25 | 211 | 0.0 | 6.4 | 0.00 | 0.00 | 0.00 | 79 | 1008.0 |
| 20260506015339 | 25 | 198 | 4.8 | 6.4 | 0.00 | 0.00 | 0.00 | 79 | 1007.9 |
| 20260506014835 | 26 | 172 | 0.0 | 6.4 | 0.00 | 0.00 | 0.00 | 78 | 1007.8 |
| 20260506014332 | 26 | 174 | 3.2 | 8.0 | 0.00 | 0.00 | 0.00 | 78 | 1007.7 |
| 20260506013829 | 26 | 172 | 3.2 | 6.4 | 0.00 | 0.00 | 0.00 | 77 | 1008.1 |
| 20260506013326 | 26 | 202 | 3.2 | 4.8 | 0.00 | 0.00 | 0.00 | 77 | 1007.8 |
| 20260506012822 | 26 | 161 | 8.0 | 9.7 | 0.00 | 0.00 | 0.00 | 77 | 1007.6 |
| 20260506012320 | 26 | 135 | 6.4 | 8.0 | 0.00 | 0.00 | 0.00 | 76 | 1007.6 |
| 20260506011817 | 26 | 193 | 3.2 | 9.7 | 0.00 | 0.00 | 0.00 | 76 | 1007.8 |
| 20260506011313 | 26 | 174 | 1.6 | 6.4 | 0.00 | 0.00 | 0.00 | 75 | 1008.0 |
| 20260506010811 | 26 | 225 | 3.2 | 9.7 | 0.00 | 0.00 | 0.00 | 75 | 1007.5 |
| 20260506010309 | 26 | 200 | 3.2 | 14.5 | 0.00 | 0.00 | 0.00 | 75 | 1007.2 |
| 20260506005806 | 26 | 192 | 6.4 | 9.7 | 0.00 | 0.00 | 0.00 | 74 | 1007.2 |
| 20260506005305 | 27 | 182 | 4.8 | 8.0 | 0.00 | 0.00 | 0.00 | 74 | 1007.2 |
| 20260506004758 | 27 | 134 | 3.2 | 12.9 | 0.00 | 0.00 | 0.00 | 73 | 1007.0 |
| 20260506004256 | 27 | 236 | 8.0 | 11.3 | 0.00 | 0.00 | 0.00 | 73 | 1007.0 |
| 20260506003752 | 27 | 153 | 4.8 | 8.0 | 0.00 | 0.00 | 0.00 | 72 | 1006.6 |
| 20260506003248 | 27 | 179 | 3.2 | 9.7 | 0.00 | 0.00 | 0.00 | 71 | 1006.8 |
| 20260506002744 | 27 | 183 | 4.8 | 11.3 | 0.00 | 0.00 | 0.00 | 71 | 1006.7 |
| 20260506002241 | 27 | 162 | 3.2 | 12.9 | 0.00 | 0.00 | 0.00 | 70 | 1006.6 |
| 20260506001737 | 28 | 150 | 4.8 | 9.7 | 0.00 | 0.00 | 0.00 | 69 | 1006.8 |
| 20260506001235 | 28 | 199 | 3.2 | 8.0 | 0.00 | 0.00 | 0.00 | 69 | 1007.1 |
| 20260506000731 | 28 | 247 | 4.8 | 9.7 | 0.00 | 0.00 | 0.00 | 68 | 1006.7 |
| 20260506000229 | 28 | 199 | 8.0 | 9.7 | 0.00 | 0.00 | 0.00 | 67 | 1006.6 |
| 20260505235726 | 28 | 174 | 3.2 | 9.7 | 0.00 | 0.00 | 0.00 | 67 | 1006.8 |
| 20260505235224 | 28 | 218 | 9.7 | 12.9 | 0.00 | 0.00 | 0.00 | 67 | 1006.8 |
| 20260505234720 | 28 | 176 | 4.8 | 14.5 | 0.00 | 0.00 | 0.00 | 65 | 1007.0 |
| 20260505234217 | 28 | 204 | 4.8 | 11.3 | 0.00 | 0.00 | 0.00 | 66 | 1006.8 |
| 20260505233714 | 29 | 245 | 12.9 | 12.9 | 0.00 | 0.00 | 0.00 | 65 | 1006.9 |
| 20260505233212 | 29 | 240 | 4.8 | 9.7 | 0.00 | 0.00 | 0.00 | 66 | 1006.6 |
| 20260505232709 | 28 | 97 | 1.6 | 9.7 | 0.00 | 0.00 | 0.00 | 66 | 1006.9 |
| 20260505232206 | 29 | 230 | 9.7 | 14.5 | 0.00 | 0.00 | 0.00 | 65 | 1006.7 |
| 20260505231703 | 29 | 263 | 1.6 | 9.7 | 0.00 | 0.00 | 0.00 | 65 | 1006.8 |
| 20260505231202 | 29 | 180 | 6.4 | 12.9 | 0.00 | 0.00 | 0.00 | 65 | 1006.7 |
| 20260505230700 | 30 | 234 | 11.3 | 14.5 | 0.00 | 0.00 | 0.00 | 63 | 1006.6 |
| 20260505230156 | 30 | 169 | 8.0 | 11.3 | 0.00 | 0.00 | 0.00 | 62 | 1006.6 |
| 20260505225652 | 30 | 230 | 12.9 | 12.9 | 0.00 | 0.00 | 0.00 | 63 | 1006.7 |
| 20260505225149 | 30 | 232 | 9.7 | 17.7 | 0.00 | 0.00 | 0.00 | 63 | 1006.4 |
| 20260505224645 | 30 | 231 | 4.8 | 17.7 | 0.00 | 0.00 | 0.00 | 62 | 1006.4 |
| 20260505224143 | 30 | 156 | 8.0 | 20.9 | 0.00 | 0.00 | 0.00 | 62 | 1006.5 |
| 20260505223640 | 30 | 180 | 8.0 | 19.3 | 0.00 | 0.00 | 0.00 | 62 | 1006.5 |
| 20260505223136 | 30 | 265 | 14.5 | 19.3 | 0.00 | 0.00 | 0.00 | 62 | 1006.5 |
| 20260505222632 | 29 | 235 | 6.4 | 14.5 | 0.00 | 0.00 | 0.00 | 63 | 1006.5 |
| 20260505222128 | 30 | 221 | 8.0 | 14.5 | 0.00 | 0.00 | 0.00 | 62 | 1006.5 |
| 20260505221626 | 30 | 214 | 4.8 | 24.1 | 0.00 | 0.00 | 0.00 | 62 | 1006.6 |
| 20260505221122 | 30 | 190 | 14.5 | 16.1 | 0.00 | 0.00 | 0.00 | 61 | 1006.5 |
| 20260505220620 | 30 | 232 | 9.7 | 12.9 | 0.00 | 0.00 | 0.00 | 61 | 1006.6 |
| 20260505220117 | 29 | 254 | 4.8 | 14.5 | 0.00 | 0.00 | 0.00 | 63 | 1006.9 |
| 20260505215615 | 29 | 229 | 16.1 | 19.3 | 0.00 | 0.00 | 0.00 | 63 | 1006.8 |
| 20260505215113 | 29 | 244 | 4.8 | 20.9 | 0.00 | 0.00 | 0.00 | 63 | 1006.8 |
| 20260505214611 | 30 | 237 | 14.5 | 24.1 | 0.00 | 0.00 | 0.00 | 62 | 1006.8 |
| 20260505214107 | 30 | 238 | 17.7 | 24.1 | 0.00 | 0.00 | 0.00 | 61 | 1007.1 |
| 20260505213605 | 30 | 246 | 11.3 | 27.4 | 0.00 | 0.00 | 0.00 | 61 | 1006.9 |
| 20260505213102 | 30 | 234 | 8.0 | 20.9 | 0.00 | 0.00 | 0.00 | 62 | 1007.0 |
| 20260505212557 | 30 | 224 | 20.9 | 22.5 | 0.00 | 0.00 | 0.00 | 61 | 1007.0 |
| 20260505212055 | 30 | 237 | 6.4 | 20.9 | 0.00 | 0.00 | 0.00 | 62 | 1006.9 |
| 20260505211552 | 30 | 246 | 6.4 | 27.4 | 0.00 | 0.00 | 0.00 | 63 | 1007.0 |
| 20260505211048 | 29 | 197 | 8.0 | 24.1 | 0.00 | 0.00 | 0.00 | 64 | 1007.0 |
| 20260505210545 | 28 | 215 | 8.0 | 22.5 | 0.00 | 0.00 | 0.00 | 65 | 1006.9 |
| 20260505210043 | 29 | 206 | 6.4 | 19.3 | 0.00 | 0.00 | 0.00 | 64 | 1007.1 |
| 20260505205541 | 28 | 255 | 9.7 | 24.1 | 0.00 | 0.00 | 0.00 | 65 | 1007.1 |
| 20260505205038 | 28 | 210 | 6.4 | 20.9 | 0.00 | 0.00 | 0.00 | 65 | 1007.2 |
| 20260505204535 | 28 | 225 | 9.7 | 17.7 | 0.00 | 0.00 | 0.00 | 66 | 1007.5 |
| 20260505204032 | 28 | 233 | 16.1 | 20.9 | 0.00 | 0.00 | 0.00 | 66 | 1007.7 |
| 20260505203529 | 28 | 214 | 12.9 | 25.7 | 0.00 | 0.00 | 0.00 | 65 | 1007.6 |
| 20260505203026 | 28 | 227 | 6.4 | 11.3 | 0.00 | 0.00 | 0.00 | 67 | 1007.7 |
| 20260505202522 | 28 | 152 | 8.0 | 19.3 | 0.00 | 0.00 | 0.00 | 67 | 1007.6 |
| 20260505202018 | 28 | 221 | 12.9 | 17.7 | 0.00 | 0.00 | 0.00 | 66 | 1007.6 |
| 20260505201515 | 28 | 240 | 11.3 | 19.3 | 0.00 | 0.00 | 0.00 | 67 | 1007.6 |
| 20260505201013 | 28 | 249 | 11.3 | 22.5 | 0.00 | 0.00 | 0.00 | 67 | 1007.7 |
| 20260505200510 | 27 | 254 | 11.3 | 22.5 | 0.00 | 0.00 | 0.00 | 67 | 1007.6 |
| 20260505200007 | 28 | 231 | 12.9 | 27.4 | 0.00 | 0.00 | 0.00 | 67 | 1007.9 |
| 20260505195503 | 28 | 204 | 12.9 | 20.9 | 0.00 | 0.00 | 0.00 | 66 | 1007.8 |
| 20260505195000 | 27 | 227 | 11.3 | 16.1 | 0.00 | 0.00 | 0.00 | 68 | 1007.7 |
| 20260505194458 | 28 | 171 | 12.9 | 17.7 | 0.00 | 0.00 | 0.00 | 66 | 1007.6 |
| 20260505193958 | 28 | 254 | 9.7 | 20.9 | 0.00 | 0.00 | 0.00 | 67 | 1007.8 |
| 20260505193456 | 28 | 188 | 6.4 | 24.1 | 0.00 | 0.00 | 0.00 | 65 | 1007.7 |
| 20260505192952 | 28 | 144 | 11.3 | 17.7 | 0.00 | 0.00 | 0.00 | 65 | 1007.9 |
| 20260505192451 | 28 | 237 | 11.3 | 25.7 | 0.00 | 0.00 | 0.00 | 65 | 1007.9 |
| 20260505191948 | 28 | 259 | 16.1 | 32.2 | 0.00 | 0.00 | 0.00 | 65 | 1007.9 |
| 20260505191447 | 28 | 237 | 4.8 | 19.3 | 0.00 | 0.00 | 0.00 | 65 | 1008.1 |
| 20260505190943 | 27 | 191 | 20.9 | 32.2 | 0.00 | 0.00 | 0.00 | 66 | 1008.0 |
| 20260505190438 | 27 | 246 | 14.5 | 17.7 | 0.00 | 0.00 | 0.00 | 67 | 1007.8 |
| 20260505185934 | 27 | 238 | 11.3 | 25.7 | 0.00 | 0.00 | 0.00 | 68 | 1008.1 |
| 20260505185432 | 27 | 225 | 11.3 | 20.9 | 0.00 | 0.00 | 0.00 | 67 | 1008.2 |
| 20260505184928 | 27 | 240 | 17.7 | 35.4 | 0.00 | 0.00 | 0.00 | 68 | 1008.4 |
| 20260505184425 | 27 | 196 | 9.7 | 20.9 | 0.00 | 0.00 | 0.00 | 68 | 1008.4 |
| 20260505183922 | 27 | 254 | 9.7 | 32.2 | 0.00 | 0.00 | 0.00 | 67 | 1008.2 |
| 20260505183419 | 27 | 219 | 19.3 | 27.4 | 0.00 | 0.00 | 0.00 | 68 | 1008.3 |
| 20260505182915 | 27 | 233 | 14.5 | 27.4 | 0.00 | 0.00 | 0.00 | 66 | 1008.2 |
| 20260505182412 | 27 | 238 | 16.1 | 22.5 | 0.00 | 0.00 | 0.00 | 66 | 1008.4 |
| 20260505181908 | 27 | 223 | 14.5 | 35.4 | 0.00 | 0.00 | 0.00 | 67 | 1008.5 |
| 20260505181406 | 27 | 252 | 11.3 | 19.3 | 0.00 | 0.00 | 0.00 | 67 | 1008.2 |
| 20260505180903 | 27 | 232 | 14.5 | 30.6 | 0.00 | 0.00 | 0.00 | 68 | 1008.4 |
| 20260505180359 | 27 | 221 | 27.4 | 32.2 | 0.00 | 0.00 | 0.00 | 67 | 1008.1 |
| 20260505175856 | 27 | 206 | 22.5 | 27.4 | 0.00 | 0.00 | 0.00 | 68 | 1008.3 |
| 20260505175352 | 27 | 245 | 24.1 | 32.2 | 0.00 | 0.00 | 0.00 | 68 | 1008.3 |
| 20260505174848 | 26 | 200 | 6.4 | 19.3 | 0.00 | 0.00 | 0.00 | 70 | 1008.3 |
| 20260505174346 | 26 | 206 | 9.7 | 30.6 | 0.00 | 0.00 | 0.00 | 70 | 1008.3 |
| 20260505173842 | 26 | 239 | 16.1 | 25.7 | 0.00 | 0.00 | 0.00 | 69 | 1008.5 |
| 20260505173339 | 26 | 233 | 9.7 | 20.9 | 0.00 | 0.00 | 0.00 | 70 | 1008.5 |
| 20260505172836 | 26 | 232 | 4.8 | 22.5 | 0.00 | 0.00 | 0.00 | 70 | 1008.5 |
| 20260505172333 | 26 | 212 | 8.0 | 19.3 | 0.00 | 0.00 | 0.00 | 72 | 1008.5 |
| 20260505171833 | 26 | 213 | 8.0 | 29.0 | 0.00 | 0.00 | 0.00 | 72 | 1008.3 |
| 20260505171330 | 26 | 180 | 11.3 | 19.3 | 0.00 | 0.00 | 0.00 | 73 | 1008.4 |
| 20260505170827 | 25 | 196 | 3.2 | 22.5 | 0.00 | 0.00 | 0.00 | 74 | 1008.8 |
| 20260505170323 | 25 | 159 | 11.3 | 22.5 | 0.00 | 0.00 | 0.00 | 75 | 1008.7 |
| 20260505165819 | 25 | 236 | 8.0 | 14.5 | 0.00 | 0.00 | 0.00 | 75 | 1008.9 |
| 20260505165315 | 25 | 206 | 14.5 | 29.0 | 0.00 | 0.00 | 0.00 | 75 | 1009.1 |
| 20260505164810 | 25 | 180 | 6.4 | 19.3 | 0.00 | 0.00 | 0.00 | 76 | 1008.7 |
| 20260505164308 | 25 | 242 | 9.7 | 24.1 | 0.00 | 0.00 | 0.00 | 77 | 1008.9 |
| 20260505163806 | 24 | 196 | 8.0 | 19.3 | 0.00 | 0.00 | 0.00 | 78 | 1008.8 |
| 20260505163304 | 23 | 174 | 11.3 | 32.2 | 0.00 | 0.00 | 0.00 | 79 | 1008.9 |
| 20260505162802 | 23 | 203 | 6.4 | 35.4 | 0.00 | 0.00 | 0.00 | 80 | 1009.0 |
| 20260505162258 | 23 | 214 | 14.5 | 24.1 | 0.00 | 0.00 | 0.00 | 80 | 1009.1 |
| 20260505161755 | 23 | 155 | 9.7 | 17.7 | 0.00 | 0.00 | 0.00 | 81 | 1009.2 |
| 20260505161252 | 23 | 215 | 9.7 | 27.4 | 0.00 | 0.00 | 0.00 | 82 | 1009.3 |
| 20260505160750 | 23 | 150 | 6.4 | 16.1 | 0.00 | 0.00 | 0.00 | 82 | 1009.3 |
| 20260505160248 | 22 | 219 | 6.4 | 22.5 | 0.00 | 0.00 | 0.00 | 82 | 1009.1 |
| 20260505153227 | 22 | 167 | 8.0 | 16.1 | 0.00 | 0.00 | 0.00 | 82 | 1009.2 |
| 20260505152724 | 22 | 210 | 8.0 | 19.3 | 0.00 | 0.00 | 0.00 | 81 | 1009.0 |
| 20260505152220 | 22 | 217 | 4.8 | 17.7 | 0.00 | 0.00 | 0.00 | 82 | 1009.1 |
| 20260505151714 | 22 | 204 | 6.4 | 19.3 | 0.00 | 0.00 | 0.00 | 81 | 1009.1 |
| 20260505151212 | 22 | 243 | 12.9 | 14.5 | 0.00 | 0.00 | 0.00 | 81 | 1009.0 |
| 20260505150708 | 22 | 204 | 11.3 | 19.3 | 0.00 | 0.00 | 0.00 | 81 | 1009.0 |
| 20260505150206 | 22 | 130 | 12.9 | 22.5 | 0.00 | 0.00 | 0.00 | 83 | 1008.9 |
| 20260505140639 | 21 | 156 | 17.7 | 27.4 | 0.00 | 0.00 | 0.00 | 83 | 1008.7 |
| 20260505140136 | 21 | 133 | 9.7 | 16.1 | 0.00 | 0.00 | 0.00 | 84 | 1008.7 |